Airport Information

KCLS - Chehalis-Centralia Airport

KCLS 251155Z AUTO 00000KT 8SM CLR 02/02 A3002 RMK AO2


  • General Information

  • Coordinates: N 46°24'22"/ W 122°35'22"
  • Location: N/A
  • Surveyed Elevation: 177 MSL

Operations

Flow Name Active Runways Conditions

Green background denotes normal operations.


Common Frequencies

Callsign Frequency Position Name

More at the Document Center


Charts

Name Description Cycle
Name Description Cycle